Location: Newark
(41.9000°N, 12.4833°E)
Time: 09:58:18
(UTC+00:00)

Envisat - Visible Passes

Search period start: 22 March 2019 00:00
Search period end: 01 April 2019 00:00
Orbit: 764 x 766 km, 98.2° (Epoch: 22 March)

Date Brightness Start Highest point End Pass type
(mag) Time Alt. Az. Time Alt. Az. Time Alt. Az.
22 Mar 5.1 18:38:59 10° SSW 18:43:20 28° W 18:47:43 10° NW visible
23 Mar 3.6 18:01:24 10° S 18:06:25 63° WSW 18:11:29 10° NNW visible
24 Mar 5.9 19:05:59 10° SW 19:09:06 16° W 19:12:16 10° NW visible
25 Mar 4.7 18:27:25 10° SSW 18:32:03 36° W 18:36:43 10° NNW visible
26 Mar 3.2 17:50:07 10° S 17:55:12 80° WSW 18:00:19 10° NNW visible
27 Mar 5.6 18:54:02 10° SW 18:57:47 21° W 19:01:34 10° NW visible
28 Mar 4.2 18:15:57 10° S 18:20:47 45° W 18:25:40 10° NNW visible
29 Mar 6.1 19:22:00 10° WSW 19:23:37 11° W 19:25:15 10° WNW visible
30 Mar 5.3 18:42:17 10° SSW 18:46:28 26° W 18:50:42 10° NW visible
31 Mar 3.8 18:04:33 10° S 18:09:32 57° W 18:14:33 10° NNW visible
